Stations météo

réclame
Mon MeteoGroup
Lechfeld, Allemagne (10856): Température de l'air & dewpoint: 09.09.2019 12:00:00 - 15.09.2019 12:00:00 (CEST)Lechfeld, Allemagne (10856): Vitesse du vent: 09.09.2019 12:00:00 - 15.09.2019 12:00:00 (CEST)Lechfeld, Allemagne (10856): Direction du vent: 09.09.2019 12:00:00 - 15.09.2019 12:00:00 (CEST)Lechfeld, Allemagne (10856): reduced air pressure: 09.09.2019 12:00:00 - 15.09.2019 12:00:00 (CEST)Lechfeld, Allemagne (10856): visibility: 09.09.2019 12:00:00 - 15.09.2019 12:00:00 (CEST)
Date & Time tt [°C] td [°C] ff [km/h] ff [knt] dd ppp [hPa] vv [km]
15.09.2019 12:00:00 20,9 15,4 7 4 WSW 1024,0 11
15.09.2019 11:00:00 19,9 15,6 11 6 W 1024,3 10
15.09.2019 10:00:00 17,4 14,7 7 4 WSW 1025,1 12
15.09.2019 09:00:00 13,2 12,9 11 6 SSW 1026,3 12
15.09.2019 08:00:00 9,3 9,2 7 4 S 1027,2 0,5
15.09.2019 07:00:00 8,3 8,2 4 2 N 1027,5 -
15.09.2019 06:00:00 9,1 8,9 4 2 SSW 1027,2 -
15.09.2019 05:00:00 9,0 8,9 4 2 S 1027,6 -
15.09.2019 04:00:00 10,3 10,1 7 4 S 1027,3 -
15.09.2019 03:00:00 12,3 12,2 7 4 S 1027,3 -
15.09.2019 02:00:00 10,8 10,5 4 2 S 1028,3 0,1
15.09.2019 01:00:00 12,0 11,7 4 2 S 1028,2 -
15.09.2019 00:00:00 13,1 12,8 0 0 N 1028,4 0,1
14.09.2019 23:00:00 14,4 13,3 0 0 N 1028,3 11
14.09.2019 22:00:00 15,0 13,6 0 0 N 1028,1 0,1
14.09.2019 21:00:00 16,6 13,9 4 2 N 1027,9 16
14.09.2019 20:00:00 17,9 13,7 7 4 NNE 1027,5 20
14.09.2019 19:00:00 19,7 14,3 7 4 NNE 1027,1 19
14.09.2019 18:00:00 21,1 14,6 14 8 NE 1026,8 21
14.09.2019 17:00:00 21,8 14,5 18 10 N 1026,8 15
14.09.2019 16:00:00 21,9 14,6 14 8 NNE 1027,2 16
14.09.2019 15:00:00 21,5 14,8 18 10 NNE 1027,6 17
14.09.2019 14:00:00 21,3 14,7 14 8 N 1028,0 15
14.09.2019 13:00:00 20,0 14,8 11 6 NE 1028,8 11
14.09.2019 12:00:00 19,5 14,9 11 6 ENE 1029,3 11
14.09.2019 11:00:00 18,4 14,9 11 6 NE 1030,0 11
14.09.2019 10:00:00 17,1 14,5 11 6 ENE 1030,4 14
14.09.2019 09:00:00 15,9 13,9 7 4 ENE 1030,7 16
14.09.2019 08:00:00 14,0 13,0 4 2 N 1031,1 14
14.09.2019 07:00:00 13,3 12,8 4 2 NNE 1030,7 13
14.09.2019 06:00:00 12,9 12,5 0 0 N 1030,9 6
14.09.2019 05:00:00 11,9 11,6 4 2 SE 1031,4 0,1
14.09.2019 04:00:00 13,0 12,4 4 2 N 1031,3 16
14.09.2019 03:00:00 13,2 12,6 4 2 N 1031,5 0,6
14.09.2019 02:00:00 13,2 12,4 4 2 NNE 1031,6 3,2
14.09.2019 01:00:00 13,9 12,7 0 0 N 1031,7 0,3
14.09.2019 00:00:00 15,3 13,0 4 2 N 1031,5 12
13.09.2019 23:00:00 16,8 13,5 11 6 NNW 1031,2 13
13.09.2019 22:00:00 17,2 13,8 7 4 NW 1030,9 14
13.09.2019 21:00:00 17,3 13,2 4 2 NNE 1030,6 19
13.09.2019 20:00:00 20,3 12,9 7 4 N 1029,6 18
13.09.2019 19:00:00 22,2 12,4 7 4 NNW 1029,0 11
13.09.2019 18:00:00 22,9 12,8 7 4 N 1028,9 15
13.09.2019 17:00:00 23,1 12,6 7 4 NW 1028,8 11
13.09.2019 16:00:00 23,2 12,9 11 6 N 1029,3 13
13.09.2019 15:00:00 23,0 12,4 11 6 WNW 1029,6 13
13.09.2019 14:00:00 22,8 13,3 11 6 NNW 1029,9 8
13.09.2019 13:00:00 21,9 12,4 7 4 NW 1030,1 50
13.09.2019 12:00:00 20,9 12,5 7 4 SW 1030,6 50
13.09.2019 11:00:00 19,7 12,4 7 4 N 1031,1 50
13.09.2019 10:00:00 17,4 12,6 7 4 WSW 1031,8 50
13.09.2019 09:00:00 14,8 11,2 11 6 SSW 1032,1 50
13.09.2019 08:00:00 12,6 10,3 11 6 S 1032,6 50
13.09.2019 07:00:00 11,4 9,5 11 6 S 1032,9 50
13.09.2019 06:00:00 11,1 9,6 7 4 S 1032,7 40
13.09.2019 05:00:00 11,6 9,7 7 4 S 1032,5 40
13.09.2019 04:00:00 11,2 9,9 7 4 SSW 1032,6 40
13.09.2019 03:00:00 12,3 10,2 7 4 SSW 1032,3 40
13.09.2019 02:00:00 12,6 10,4 11 6 S 1032,3 40
13.09.2019 01:00:00 12,4 10,1 14 8 S 1032,4 40
13.09.2019 00:00:00 11,7 9,6 4 2 S 1032,7 40
12.09.2019 23:00:00 14,5 11,0 4 2 SSW 1031,9 50
12.09.2019 22:00:00 15,8 11,1 11 6 S 1031,3 50
12.09.2019 21:00:00 15,2 11,7 11 6 S 1031,3 50
12.09.2019 20:00:00 17,2 11,3 0 0 N 1030,4 50
12.09.2019 19:00:00 21,4 9,5 7 4 WNW 1029,2 50
12.09.2019 18:00:00 21,9 9,5 7 4 NNW 1028,9 50
12.09.2019 17:00:00 22,0 9,1 7 4 W 1029,1 40
12.09.2019 16:00:00 21,7 9,7 11 6 W 1029,4 40
12.09.2019 15:00:00 21,4 9,1 11 6 SW 1029,7 40
12.09.2019 14:00:00 21,0 8,5 11 6 W 1030,1 40
12.09.2019 13:00:00 20,0 8,2 11 6 WSW 1030,6 40
12.09.2019 12:00:00 19,2 8,8 11 6 SW 1030,8 40
12.09.2019 11:00:00 18,0 9,9 11 6 W 1031,0 25
12.09.2019 10:00:00 16,9 10,5 11 6 SW 1030,7 25
12.09.2019 09:00:00 15,8 10,9 11 6 SSW 1030,2 25
12.09.2019 08:00:00 14,3 10,7 7 4 S 1030,2 25
12.09.2019 07:00:00 13,1 10,4 11 6 S 1030,4 25
12.09.2019 06:00:00 13,2 10,1 11 6 S 1029,7 20
12.09.2019 05:00:00 13,3 10,0 11 6 S 1029,5 20
12.09.2019 04:00:00 13,5 10,2 11 6 SSW 1029,5 20
12.09.2019 03:00:00 13,8 9,9 7 4 SSW 1029,1 20
12.09.2019 02:00:00 14,2 10,5 7 4 SW 1028,7 20
12.09.2019 01:00:00 14,0 10,1 7 4 SSW 1028,2 20
12.09.2019 00:00:00 14,7 9,2 7 4 W 1027,8 20
11.09.2019 23:00:00 15,8 9,7 14 8 W 1027,3 20
11.09.2019 22:00:00 15,5 11,1 7 4 N 1026,7 20
11.09.2019 21:00:00 13,6 10,5 7 4 S 1026,4 20
11.09.2019 20:00:00 15,1 10,4 4 2 SSE 1025,2 25
11.09.2019 19:00:00 18,3 9,5 4 2 NW 1023,7 30
11.09.2019 18:00:00 18,9 8,9 7 4 N 1023,2 30
11.09.2019 17:00:00 19,5 8,6 7 4 NW 1022,7 30
11.09.2019 16:00:00 19,8 8,5 4 2 SE 1022,3 30
11.09.2019 15:00:00 19,1 7,7 4 2 N 1022,7 30
11.09.2019 14:00:00 18,7 7,8 7 4 N 1022,9 30
11.09.2019 13:00:00 17,7 8,4 7 4 E 1023,3 30
11.09.2019 12:00:00 17,1 9,3 4 2 S 1023,3 30
11.09.2019 11:00:00 15,9 9,6 4 2 S 1023,6 20
11.09.2019 10:00:00 13,8 9,5 4 2 N 1023,8 20
11.09.2019 09:00:00 11,5 10,2 4 2 N 1023,9 10
11.09.2019 08:00:00 7,3 7,1 0 0 N 1024,5 10
11.09.2019 07:00:00 8,1 7,7 0 0 N 1023,7 8
11.09.2019 06:00:00 8,6 8,1 0 0 N 1022,7 10
11.09.2019 05:00:00 8,4 8,0 4 2 S 1022,2 15
11.09.2019 04:00:00 9,4 8,7 4 2 NW 1022,1 15
11.09.2019 03:00:00 8,4 7,8 4 2 NE 1022,0 15
11.09.2019 02:00:00 9,5 8,7 0 0 N 1021,7 25
11.09.2019 01:00:00 9,3 8,7 0 0 N 1021,5 25
11.09.2019 00:00:00 9,5 8,8 0 0 N 1021,4 30
10.09.2019 23:00:00 10,3 9,2 4 2 NE 1021,2 40
10.09.2019 22:00:00 12,0 9,4 7 4 N 1020,6 40
10.09.2019 21:00:00 12,5 9,0 7 4 N 1019,8 50
10.09.2019 20:00:00 14,5 9,6 11 6 N 1018,5 50
10.09.2019 19:00:00 15,9 9,5 11 6 NNE 1017,6 50
10.09.2019 18:00:00 17,1 9,1 14 8 NE 1016,8 50
10.09.2019 17:00:00 17,3 9,6 14 8 NNE 1016,4 50
10.09.2019 16:00:00 17,6 10,3 14 8 NNE 1016,0 50
10.09.2019 15:00:00 17,1 9,4 14 8 ENE 1016,3 50
10.09.2019 14:00:00 16,1 9,4 18 10 NE 1016,6 50
10.09.2019 13:00:00 15,3 9,0 14 8 ENE 1016,9 40
10.09.2019 12:00:00 14,0 8,4 18 10 ENE 1017,3 30
10.09.2019 11:00:00 12,3 9,3 11 6 NE 1017,6 30
10.09.2019 10:00:00 10,0 8,6 7 4 NNE 1018,2 30
10.09.2019 09:00:00 7,6 7,4 4 2 NE 1018,5 20
10.09.2019 08:00:00 6,2 6,1 4 2 SSE 1018,5 15
10.09.2019 07:00:00 3,7 3,5 7 4 S 1018,6 -
10.09.2019 06:00:00 3,7 3,5 4 2 SSE 1018,1 10
10.09.2019 05:00:00 4,8 4,6 0 0 N 1017,7 10
10.09.2019 04:00:00 5,5 5,3 0 0 N 1017,7 20
10.09.2019 03:00:00 5,5 5,1 0 0 N 1017,9 20
10.09.2019 02:00:00 6,5 6,2 0 0 N 1017,6 20
10.09.2019 01:00:00 6,4 6,1 4 2 S 1017,9 20
10.09.2019 00:00:00 6,3 6,0 7 4 S 1018,0 20
09.09.2019 23:00:00 5,4 5,1 7 4 NE 1018,2 20
09.09.2019 22:00:00 7,4 7,2 7 4 S 1017,5 20
09.09.2019 21:00:00 7,7 7,2 11 6 S 1017,0 20
09.09.2019 20:00:00 10,6 8,5 4 2 NNW 1016,0 30
09.09.2019 19:00:00 13,0 7,5 4 2 N 1015,2 30
09.09.2019 18:00:00 13,5 7,9 7 4 WSW 1015,2 20
09.09.2019 17:00:00 12,4 7,9 11 6 WSW 1015,7 20
09.09.2019 16:00:00 12,4 8,1 14 8 WSW 1015,8 20
09.09.2019 15:00:00 11,3 8,5 18 10 WSW 1016,2 20
09.09.2019 14:00:00 11,3 9,1 18 10 WSW 1016,2 15
09.09.2019 13:00:00 10,3 8,9 18 10 WSW 1016,3 7
09.09.2019 12:00:00 10,0 8,8 18 10 WSW 1016,3 5

tt = Température de l'air
td = dewpoint
ff = Vitesse du vent
dd = Direction du vent
ppp = reduced air pressure
vv = visibility

stations d'obs. à proximité